When you browse on this site, cookies collect data to enhance your experience and personalize the content and advertising you see.
Visit our Privacy Policy to learn more. By continuing to use the site, you agree to this use of cookies and data.
  • în România
  • Lista ţărilor
  • Pe 7 zile
  • Temperatura apei
  • Hartă satelitară
  • Meteo pe hartă
  • Widget-uri
  • user-avatar
    Intrare

    Meteo pe oră la Saint-Sebastien-sur-Loire

    Astăzi, 25 Iunie, Marţi

    Timp Temperatura Precipitaţii Vânt Presiune Umiditate
    00:00 +17°C° 0 mm 2 m/s 760 mmHg 92%
    01:00 +16°C° 0 mm 2 m/s 759 mmHg 94%
    02:00 +16°C° 0 mm 2 m/s 759 mmHg 95%
    03:00 +15°C° 0 mm 2 m/s 759 mmHg 96%
    04:00 +16°C° 0 mm 1 m/s 759 mmHg 94%
    05:00 +18°C° 0 mm 1 m/s 760 mmHg 93%
    06:00 +18°C° 0 mm 1 m/s 760 mmHg 89%
    07:00 +20°C° 0 mm 1 m/s 760 mmHg 84%
    08:00 +22°C° 0 mm 1 m/s 761 mmHg 78%
    09:00 +24°C° 0 mm 1 m/s 761 mmHg 73%
    10:00 +25°C° 0 mm 1 m/s 761 mmHg 68%
    11:00 +27°C° 0 mm 2 m/s 761 mmHg 63%
    12:00 +28°C° 0 mm 2 m/s 762 mmHg 58%
    13:00 +28°C° 0 mm 2 m/s 762 mmHg 58%
    14:00 +28°C° 0 mm 2 m/s 762 mmHg 57%
    15:00 +29°C° 0 mm 2 m/s 762 mmHg 56%
    16:00 +28°C° 0 mm 2 m/s 762 mmHg 62%
    17:00 +27°C° 0 mm 2 m/s 762 mmHg 68%
    18:00 +25°C° 0 mm 2 m/s 762 mmHg 73%
    19:00 +24°C° 0 mm 2 m/s 762 mmHg 80%
    20:00 +22°C° 0 mm 3 m/s 763 mmHg 86%
    21:00 +21°C° 0 mm 3 m/s 763 mmHg 93%
    22:00 +21°C° 0 mm 3 m/s 763 mmHg 93%
    23:00 +21°C° 0 mm 3 m/s 763 mmHg 93%

    Mâine, 26 Iunie, Miercuri

    Timp Temperatura Precipitaţii Vânt Presiune Umiditate
    00:00 +20°C° 0 mm 4 m/s 763 mmHg 94%
    01:00 +20°C° 0.1 mm 4 m/s 763 mmHg 95%
    02:00 +20°C° 0.1 mm 4 m/s 762 mmHg 95%
    03:00 +21°C° 0.1 mm 4 m/s 762 mmHg 96%
    04:00 +21°C° 0.1 mm 5 m/s 762 mmHg 94%
    05:00 +21°C° 0.1 mm 5 m/s 762 mmHg 93%
    06:00 +22°C° 0.1 mm 6 m/s 762 mmHg 91%
    07:00 +23°C° 0 mm 6 m/s 762 mmHg 86%
    08:00 +26°C° 0 mm 7 m/s 762 mmHg 80%
    09:00 +28°C° 0 mm 7 m/s 762 mmHg 74%
    10:00 +29°C° 0 mm 7 m/s 762 mmHg 71%
    11:00 +30°C° 0 mm 7 m/s 762 mmHg 67%
    12:00 +33°C° 0 mm 7 m/s 762 mmHg 63%
    13:00 +33°C° 0 mm 7 m/s 761 mmHg 61%
    14:00 +34°C° 0 mm 7 m/s 761 mmHg 59%
    15:00 +35°C° 0 mm 6 m/s 761 mmHg 57%
    16:00 +34°C° 0 mm 5 m/s 761 mmHg 61%
    17:00 +34°C° 0 mm 4 m/s 761 mmHg 64%
    18:00 +34°C° 0 mm 3 m/s 760 mmHg 68%
    19:00 +31°C° 0 mm 3 m/s 761 mmHg 74%
    20:00 +29°C° 0 mm 3 m/s 761 mmHg 80%
    21:00 +27°C° 0 mm 3 m/s 761 mmHg 86%
    22:00 +27°C° 0 mm 4 m/s 762 mmHg 88%
    23:00 +26°C° 0 mm 4 m/s 762 mmHg 89%

    Poimâine, 27 Iunie, Joi

    Timp Temperatura Precipitaţii Vânt Presiune Umiditate
    00:00 +26°C° 0 mm 4 m/s 762 mmHg 91%
    01:00 +26°C° 0 mm 5 m/s 762 mmHg 92%
    02:00 +25°C° 0 mm 5 m/s 762 mmHg 94%
    03:00 +25°C° 0 mm 5 m/s 762 mmHg 95%
    04:00 +25°C° 0 mm 5 m/s 762 mmHg 94%
    05:00 +25°C° 0 mm 5 m/s 762 mmHg 93%
    06:00 +25°C° 0 mm 5 m/s 762 mmHg 92%
    07:00 +26°C° 0 mm 5 m/s 762 mmHg 87%
    08:00 +28°C° 0 mm 5 m/s 762 mmHg 83%
    09:00 +29°C° 0 mm 5 m/s 762 mmHg 78%
    10:00 +30°C° 0 mm 5 m/s 762 mmHg 71%
    11:00 +33°C° 0 mm 5 m/s 762 mmHg 63%
    12:00 +35°C° 0 mm 4 m/s 762 mmHg 56%
    13:00 +36°C° 0 mm 5 m/s 762 mmHg 55%
    14:00 +37°C° 0 mm 5 m/s 762 mmHg 53%
    15:00 +37°C° 0 mm 5 m/s 761 mmHg 52%
    16:00 +37°C° 0 mm 4 m/s 761 mmHg 56%
    17:00 +36°C° 0 mm 4 m/s 760 mmHg 61%
    18:00 +35°C° 0 mm 3 m/s 760 mmHg 65%
    19:00 +34°C° 0 mm 4 m/s 760 mmHg 70%
    20:00 +32°C° 0 mm 5 m/s 760 mmHg 76%
    21:00 +30°C° 0 mm 6 m/s 761 mmHg 81%
    22:00 +29°C° 0 mm 6 m/s 761 mmHg 84%
    23:00 +29°C° 0 mm 6 m/s 760 mmHg 87%

    28 Iunie, Vineri

    Timp Temperatura Precipitaţii Vânt Presiune Umiditate
    00:00 +28°C° 0 mm 6 m/s 760 mmHg 90%
    01:00 +27°C° 0 mm 6 m/s 760 mmHg 91%
    02:00 +26°C° 0 mm 5 m/s 760 mmHg 92%
    03:00 +25°C° 0 mm 4 m/s 760 mmHg 93%
    04:00 +25°C° 0 mm 4 m/s 760 mmHg 91%
    05:00 +25°C° 0 mm 5 m/s 760 mmHg 90%
    06:00 +25°C° 0 mm 5 m/s 760 mmHg 88%
    07:00 +26°C° 0 mm 5 m/s 760 mmHg 83%
    08:00 +28°C° 0 mm 5 m/s 760 mmHg 78%
    09:00 +29°C° 0 mm 5 m/s 760 mmHg 73%
    10:00 +32°C° 0 mm 5 m/s 760 mmHg 69%
    11:00 +34°C° 0 mm 4 m/s 760 mmHg 64%
    12:00 +35°C° 0 mm 4 m/s 760 mmHg 59%
    13:00 +36°C° 0 mm 4 m/s 760 mmHg 58%
    14:00 +36°C° 0 mm 4 m/s 760 mmHg 57%
    15:00 +37°C° 0 mm 4 m/s 760 mmHg 56%
    16:00 +35°C° 0 mm 3 m/s 760 mmHg 60%
    17:00 +34°C° 0 mm 3 m/s 760 mmHg 64%
    18:00 +31°C° 0 mm 3 m/s 760 mmHg 69%
    19:00 +29°C° 0 mm 2 m/s 760 mmHg 75%
    20:00 +26°C° 0 mm 2 m/s 760 mmHg 81%
    21:00 +24°C° 0 mm 1 m/s 760 mmHg 88%
    22:00 +23°C° 0 mm 1 m/s 760 mmHg 89%
    23:00 +23°C° 0 mm 1 m/s 760 mmHg 90%

    29 Iunie, Sâmbătă

    Timp Temperatura Precipitaţii Vânt Presiune Umiditate
    00:00 +22°C° 0 mm 1 m/s 760 mmHg 91%
    01:00 +22°C° 0 mm 1 m/s 760 mmHg 91%
    02:00 +22°C° 0 mm 1 m/s 759 mmHg 92%
    03:00 +21°C° 0 mm 1 m/s 759 mmHg 92%
    04:00 +22°C° 0 mm 1 m/s 759 mmHg 90%
    05:00 +22°C° 0 mm 1 m/s 759 mmHg 88%
    06:00 +23°C° 0 mm 2 m/s 759 mmHg 86%
    07:00 +25°C° 0 mm 2 m/s 759 mmHg 79%
    08:00 +27°C° 0 mm 2 m/s 759 mmHg 73%
    09:00 +29°C° 0 mm 2 m/s 759 mmHg 66%
    10:00 +30°C° 0 mm 2 m/s 759 mmHg 65%
    11:00 +31°C° 0 mm 3 m/s 759 mmHg 64%
    12:00 +33°C° 0 mm 4 m/s 759 mmHg 62%
    13:00 +32°C° 0 mm 4 m/s 759 mmHg 62%
    14:00 +32°C° 0 mm 4 m/s 759 mmHg 62%
    15:00 +32°C° 0 mm 4 m/s 758 mmHg 62%
    16:00 +29°C° 0 mm 4 m/s 758 mmHg 67%
    17:00 +28°C° 0 mm 4 m/s 759 mmHg 72%
    18:00 +26°C° 0 mm 4 m/s 759 mmHg 77%
    19:00 +25°C° 0 mm 4 m/s 759 mmHg 82%
    20:00 +22°C° 0 mm 3 m/s 759 mmHg 87%
    21:00 +21°C° 0 mm 2 m/s 760 mmHg 92%
    22:00 +21°C° 0 mm 3 m/s 760 mmHg 83%
    23:00 +21°C° 0 mm 3 m/s 760 mmHg 74%

    30 Iunie, Duminică

    Timp Temperatura Precipitaţii Vânt Presiune Umiditate
    00:00 +21°C° 0 mm 3 m/s 760 mmHg 65%
    01:00 +19°C° 0 mm 3 m/s 760 mmHg 67%
    02:00 +18°C° 0 mm 3 m/s 760 mmHg 70%
    03:00 +16°C° 0 mm 2 m/s 760 mmHg 72%
    04:00 +16°C° 0 mm 2 m/s 761 mmHg 74%
    05:00 +16°C° 0 mm 2 m/s 761 mmHg 75%
    06:00 +16°C° 0 mm 2 m/s 761 mmHg 76%
    07:00 +18°C° 0 mm 2 m/s 762 mmHg 70%
    08:00 +20°C° 0 mm 2 m/s 762 mmHg 63%
    09:00 +23°C° 0 mm 2 m/s 762 mmHg 57%
    10:00 +24°C° 0 mm 2 m/s 762 mmHg 53%
    11:00 +25°C° 0 mm 1 m/s 762 mmHg 49%
    12:00 +26°C° 0 mm 1 m/s 762 mmHg 45%
    13:00 +27°C° 0 mm 1 m/s 762 mmHg 44%
    14:00 +27°C° 0 mm 2 m/s 762 mmHg 43%
    15:00 +28°C° 0 mm 2 m/s 761 mmHg 42%
    16:00 +27°C° 0 mm 2 m/s 761 mmHg 46%
    17:00 +27°C° 0 mm 2 m/s 761 mmHg 50%
    18:00 +27°C° 0 mm 3 m/s 761 mmHg 54%
    19:00 +25°C° 0 mm 3 m/s 761 mmHg 63%
    20:00 +21°C° 0 mm 3 m/s 762 mmHg 73%
    21:00 +19°C° 0 mm 3 m/s 762 mmHg 82%
    22:00 +19°C° 0 mm 3 m/s 762 mmHg 81%
    23:00 +19°C° 0 mm 3 m/s 762 mmHg 80%
    Arată mai mult